#timestamp,LO_Frequency,Hit,StdDev 
1551564015.5,286047002.6,N
1551564035.3,286046998.1,N
1551564055.2,286046998.6,N
1551564075.9,286046999.6,N
1551564095.7,286046994.9,N
1551564115.6,286046995.5,N
1551564135.4,286046995.7,N
1551564155.2,286046999.0,N
1551564175.1,286047001.1,N
1551564176.0,286047001.1,N
1551564195.8,286047000.5,N
1551564215.7,286047000.7,N
1551564235.5,286047000.0,N
1551564255.3,286047002.1,N
1551564275.2,286047004.3,N
1551564295.0,286046999.7,N
1551564295.9,286046999.7,N
1551564315.7,286046999.9,N
1551564335.6,286046999.3,N
1551564355.4,286047001.1,N
1551564375.3,286046998.4,N
1551564395.1,286047002.3,N
1551564396.0,286047002.3,N
1551564415.8,286047000.7,N
1551564435.7,286047000.5,N
1551564455.5,286046999.4,N
1551564475.4,286046995.9,N
1551564495.2,286046996.1,N
1551564515.0,286046995.1,N
1551564515.9,286046995.1,N
1551564535.8,286046999.5,N
1551564555.6,286046998.2,N
1551564575.4,286046998.2,N
1551564595.3,286046998.9,N
1551564615.1,286047000.3,N
1551564635.9,286047000.3,N
1551564655.7,286047000.7,N
1551564675.5,286047002.8,N
1551564695.4,286047001.1,N
1551564715.2,286047001.1,N
1551564735.0,286046998.4,N
1551564736.0,286046998.4,N
1551564755.8,286046998.1,N
1551564775.6,286047000.5,N
1551564795.5,286047000.6,N
1551564815.3,286047001.2,N
1551564835.1,286047000.6,N
1551564855.9,286047000.9,N
1551564875.7,286047002.0,N
1551564895.6,286047002.5,N
1551564915.4,286047000.2,N
1551564935.2,286046999.3,N
1551564955.1,286046997.7,N
1551564956.0,286046997.7,N
1551564975.8,286046996.7,N
1551564995.6,286046998.8,N
1551565015.5,286047001.2,N
1551565035.3,286046999.7,N
1551565055.2,286047000.0,N
1551565075.9,286047000.4,N
1551565095.7,286046998.7,N
1551565115.6,286046999.2,N
1551565135.4,286046996.6,N
1551565155.3,286046998.4,N
1551565175.1,286047002.4,N
1551565176.0,286047002.4,N
1551565195.8,286047002.7,N
1551565215.7,286047002.1,N
1551565235.5,286047002.3,N
1551565255.3,286046999.9,N
1551565275.2,286047000.4,N
1551565295.0,286047011.9,Y
1551565295.9,286046998.8,P
1551565315.8,286046998.9,N
1551565335.6,286046999.3,N
1551565355.4,286046998.4,Y
1551565375.3,286047000.8,P
1551565395.1,286047002.1,N
1551565415.9,286047004.3,P
1551565435.7,286047003.3,N
1551565455.5,286047003.0,N
1551565475.4,286046999.8,N
1551565495.2,286046999.2,N
1551565515.0,286046999.5,N
1551565515.9,286046999.5,N
1551565535.8,286047000.9,N
1551565555.6,286047001.7,N
1551565575.5,286047001.2,N
1551565595.3,286047001.0,N
1551565615.1,286047001.5,N
1551565635.9,286047003.1,N
1551565655.7,286047001.7,N
1551565675.5,286047002.2,N
1551565695.4,286047002.9,N
1551565715.2,286047006.0,Y
1551565735.1,286047002.8,P
1551565736.0,286047002.8,P
1551565755.8,286047002.7,P
1551565775.6,286047002.5,Y
1551565795.5,286046999.4,P
1551565815.3,286046997.1,N
1551565835.2,286047000.8,N
1551565855.9,286046998.6,N
1551565875.7,286046999.2,N
1551565895.6,286046998.6,N
1551565915.4,286046998.6,N
1551565935.3,286046999.6,N
1551565955.1,286046997.4,N
1551565956.0,286046997.4,N
1551565975.8,286046995.4,Y
1551565995.7,286046997.7,P
1551566015.5,286046997.8,P
1551566035.3,286046997.4,P
1551566055.2,286046996.7,Y
1551566075.0,286046999.4,P
1551566075.9,286046999.4,N
1551566095.8,286046999.7,N
1551566115.6,286046998.2,N
1551566135.4,286046998.1,N
1551566155.3,286047000.7,N
1551566175.1,286046998.5,N
1551566195.9,286046996.6,Y
1551566215.7,286046999.8,P
1551566235.5,286047000.7,N
1551566255.4,286046999.7,N
1551566275.2,286047001.6,N
1551566295.0,286047002.1,N
1551566295.9,286047002.1,N
1551566315.8,286047005.5,Y
1551566335.6,286047003.7,P
1551566355.5,286047001.8,N
1551566375.3,286046999.9,N
1551566395.1,286046999.0,N
1551566415.9,286046998.5,N
1551566435.7,286047002.2,N
1551566455.6,286047001.6,N
1551566475.4,286047001.9,N
1551566495.2,286047000.8,N
1551566515.1,286046999.4,N
1551566516.0,286046999.4,N
1551566535.8,286047000.8,N
1551566555.6,286046998.6,N
1551566575.5,286046999.3,N
1551566595.3,286046996.6,N
1551566615.2,286046998.9,N
1551566635.9,286046998.1,N
1551566655.7,286047001.0,N
1551566675.6,286046998.5,N
1551566695.4,286047000.0,N
1551566715.3,286046998.9,N
1551566735.1,286046999.4,N
1551566736.0,286046999.4,N
1551566755.8,286046996.8,N
1551566775.7,286046998.8,N
1551566795.5,286046998.9,N
1551566815.4,286046999.0,N
1551566835.2,286046996.5,N
1551566855.0,286046997.0,N
1551566855.9,286046997.0,N
1551566875.8,286046998.7,N
1551566895.6,286046996.9,N
1551566915.4,286047001.0,N
1551566935.3,286046998.9,N
1551566955.1,286046996.7,N
1551566975.9,286046997.3,N
1551566995.7,286046999.2,N
1551567015.5,286047000.4,N
1551567035.4,286047001.0,N
1551567055.2,286046998.9,N
1551567075.1,286046996.6,N
1551567076.0,286046996.6,N
1551567095.8,286046998.5,N
1551567115.6,286047000.7,N
1551567135.5,286047002.1,N
1551567155.3,286047001.9,N
1551567175.1,286047000.3,N
1551567195.9,286047002.3,N
1551567215.7,286047002.5,N
1551567235.6,286047002.1,N
1551567255.4,286047003.7,N
1551567275.2,286047003.4,N
1551567295.1,286047007.2,Y
1551567296.0,286047007.2,P
1551567315.8,286047007.1,N
1551567335.6,286047004.8,N
1551567355.5,286047003.3,N
1551567375.3,286047003.0,N
1551567395.2,286047003.2,N
1551567415.0,286047004.8,N
1551567415.9,286047004.8,N
1551567435.8,286047005.4,N
1551567455.6,286047002.9,N
1551567475.4,286047003.7,N
1551567495.3,286047003.4,N
1551567515.1,286047005.7,N
1551567535.8,286047005.9,Y
1551567555.7,286047000.8,P
1551567575.5,286046998.3,N
1551567595.4,286046999.2,N
